Wind_Speed
16 16 15 13 11 9 8 8 9 9 10 10 11 12 13 14 15 15 15 15 14 13 12 11 10 9 8 8 7 7 7 7 7 7 7 6 5 4 2 1 1 2 1
13 13 12 10 8 6 4 4 5 6 6 7 8 9 10 11 12 12 13 13 12 11 10 9 9 8 7 6 6 6 6 6 5 5 5 5 5 4 2 0 1 2 2
10 9 8 7 5 3 2 2 2 3 4 4 5 6 7 8 9 10 11 11 11 10 9 8 7 6 5 5 5 5 5 5 5 4 4 4 4 4 3 1 0 1 2
7 6 5 4 3 1 1 1 1 1 2 3 4 4 5 6 7 8 9 9 10 9 8 7 6 4 4 3 4 4 5 5 5 4 3 3 3 3 2 2 1 1 1
5 4 4 3 1 1 2 3 3 2 2 2 3 4 4 5 5 6 7 8 9 9 8 7 6 4 3 3 3 4 4 5 5 4 2 2 2 2 3 3 2 2 2
4 3 2 1 1 2 3 4 4 4 3 3 3 3 3 4 4 5 6 7 9 9 9 7 6 5 4 3 3 4 4 5 5 4 3 2 2 3 3 4 3 3 3
4 3 1 2 3 4 5 5 6 5 5 4 3 3 3 3 4 4 5 6 8 9 10 8 7 6 5 4 4 5 5 6 6 5 4 3 3 4 4 5 4 2 3
6 5 4 4 5 6 7 7 7 7 6 5 4 4 4 5 5 6 6 6 8 9 10 9 9 8 6 5 5 6 6 7 7 7 6 6 5 6 6 6 6 4 4
8 7 7 7 8 9 9 9 8 8 7 6 6 6 6 6 7 8 7 7 8 8 9 10 10 9 8 7 6 6 7 8 8 8 8 8 8 8 8 7 7 7 6
10 10 9 9 9 10 10 10 10 10 9 9 9 9 9 9 10 10 9 9 8 8 8 9 10 10 10 9 8 8 7 8 9 10 10 10 10 10 10 10 9 9 8
11 11 11 11 11 11 11 11 12 12 12 12 12 12 12 13 13 13 12 11 10 9 8 8 9 10 10 10 10 9 9 9 10 11 12 12 12 12 12 12 11 11 10
11 12 12 12 12 13 13 13 13 13 13 14 15 15 16 16 15 15 15 14 13 12 10 10 10 10 10 10 10 10 10 10 11 12 13 14 14 14 14 13 13 13 12
12 13 14 14 14 15 15 15 15 15 16 16 16 17 16 17 17 16 16 16 16 15 14 12 11 11 11 11 11 11 12 11 12 13 13 14 16 16 16 15 15 15 14
13 14 15 16 16 17 17 17 17 17 17 17 18 18 18 18 18 18 18 18 18 18 17 16 15 14 14 14 13 13 13 13 14 14 15 15 17 18 18 18 17 17 17
17 17 18 18 19 19 20 20 20 20 21 21 21 21 21 22 22 21 21 22 22 22 21 20 18 18 17 16 16 15 15 15 15 16 17 17 18 18 19 19 20 20 19
21 21 22 22 23 23 23 24 25 25 25 24 25 25 25 25 25 26 26 25 25 25 25 24 22 21 20 19 19 19 18 18 19 19 19 20 20 20 20 21 21 22 22
26 26 26 27 27 27 28 29 29 29 29 29 29 29 29 30 30 30 30 29 29 28 27 27 25 25 24 22 22 22 22 22 22 22 23 23 23 23 22 23 23 24 24
33 32 32 32 32 32 33 34 34 34 33 33 33 33 34 34 35 34 33 33 32 31 30 29 29 28 27 26 25 25 25 25 26 26 26 26 26 26 26 25 25 25 26
39 38 37 37 37 38 38 39 39 38 38 37 38 38 38 39 38 38 38 37 35 34 34 33 32 31 31 30 29 29 29 29 29 30 30 30 29 29 29 28 28 27 27
44 44 43 42 42 42 43 44 44 43 42 42 41 42 42 42 42 42 42 41 40 38 37 36 35 35 34 34 33 32 32 32 32 33 34 34 34 33 32 32 31 30 29
46 46 46 46 46 46 46 46 47 46 44 44 43 43 45 46 46 46 46 45 45 42 40 39 38 37 37 36 35 35 34 34 34 35 37 37 37 36 35 34 34 33 32
45 46 46 46 47 48 48 48 49 46 44 45 45 45 46 47 48 48 48 48 46 44 42 42 40 38 37 37 37 37 35 35 37 37 38 39 39 39 37 36 36 36 35
42 43 44 45 46 48 49 49 49 48 46 46 46 46 46 45 47 49 48 48 47 45 43 42 41 39 38 37 38 38 37 37 38 38 39 40 40 40 39 38 37 37 37
41 42 44 45 46 47 48 48 48 46 46 45 47 48 48 47 46 46 47 47 46 42 39 38 37 36 35 36 36 38 39 39 39 38 37 39 39 40 40 39 38 38 38
42 43 44 45 46 47 48 49 49 49 50 49 50 49 49 47 46 46 44 43 41 38 36 35 34 34 34 35 36 37 38 38 39 38 36 36 37 38 38 38 38 37 37
41 43 44 45 47 48 49 51 51 52 53 53 52 50 50 49 48 45 44 40 35 34 33 32 33 33 34 35 36 36 37 37 36 36 35 33 33 35 36 37 37 37 37
Wind_Direction
124 128 127 125 122 117 111 105 101 98 94 89 83 77 73 70 69 68 67 66 66 66 66 65 64 62 62 62 63 62 58 55 53 52 48 44 44 50 71 136 172 185 149
124 127 127 124 122 115 105 99 99 97 93 88 81 74 68 64 63 62 61 59 59 59 60 60 60 59 57 55 54 54 53 51 49 50 47 42 39 38 41 98 191 213 216
122 123 122 122 120 110 74 65 84 96 93 85 75 66 59 55 55 55 54 53 52 51 52 52 51 51 50 46 42 40 40 41 42 42 40 39 37 32 25 12 270 212 216
113 110 106 106 110 99 22 3 17 53 73 71 64 55 48 44 43 43 43 44 45 43 41 40 38 36 36 32 26 22 24 27 30 33 34 31 25 22 11 353 299 236 212
112 104 94 78 60 22 343 337 341 354 20 34 38 39 38 34 32 31 32 33 35 34 31 28 23 17 14 10 2 357 0 7 16 20 25 18 4 359 346 323 269 238 229
142 134 112 56 341 320 321 326 330 332 340 352 6 15 23 24 22 17 19 21 23 22 21 18 12 3 353 346 340 338 340 346 354 359 356 341 331 333 337 332 275 232 239
189 194 218 287 299 302 306 311 315 318 323 327 337 349 353 354 350 350 353 360 4 6 9 9 7 1 347 331 324 325 328 331 337 341 336 320 311 316 323 332 341 274 262
230 235 250 272 282 290 298 303 306 308 313 313 317 327 331 330 328 328 328 336 346 352 356 359 360 358 351 335 322 318 320 323 325 326 323 316 307 307 313 319 333 330 311
248 252 259 268 275 281 288 293 296 297 297 297 300 303 310 314 313 314 313 317 329 339 346 350 352 352 350 342 330 319 312 312 314 316 316 314 307 303 304 309 317 323 316
260 263 264 268 273 276 281 285 288 289 288 288 292 293 298 302 302 302 300 304 310 317 329 338 342 344 344 341 335 326 315 308 306 305 307 309 307 303 300 299 304 308 310
267 268 268 271 273 274 278 282 282 283 284 285 288 292 294 297 296 293 290 291 294 295 303 314 323 330 334 336 337 330 318 312 308 303 300 301 302 302 300 297 297 299 302
270 270 270 274 275 275 276 279 280 279 282 286 288 292 294 295 294 289 286 284 283 282 285 294 301 310 319 323 328 330 325 316 310 306 301 297 297 298 299 297 294 294 295
274 273 274 278 278 278 278 278 279 279 282 287 289 291 293 293 291 288 284 281 277 275 275 280 286 291 300 308 313 317 320 319 315 309 306 299 295 294 294 294 292 290 290
277 276 277 279 279 279 279 278 278 280 282 284 286 287 289 290 288 285 282 280 276 273 272 274 277 280 286 294 301 309 314 314 313 311 307 303 297 294 292 291 289 287 286
277 276 275 274 276 276 276 275 277 278 280 282 283 283 285 285 283 281 280 277 275 274 272 271 271 273 278 284 290 297 302 307 309 310 308 304 300 295 292 289 286 284 283
276 274 272 270 270 271 271 272 274 275 278 279 280 281 281 281 280 278 277 276 274 273 272 271 270 270 273 277 282 288 293 296 301 304 304 303 301 297 292 289 285 281 279
273 271 269 267 267 267 267 269 270 271 273 275 277 278 278 278 277 276 274 274 272 271 270 269 269 269 270 273 276 280 284 288 292 297 298 298 297 297 294 289 286 281 277
272 271 270 269 267 266 266 266 267 268 270 271 273 275 275 275 275 273 272 272 271 270 268 267 267 267 269 271 273 277 280 283 286 289 292 292 293 293 293 290 286 282 277
272 272 271 270 269 268 266 266 266 266 267 268 269 271 272 272 272 271 270 270 269 268 266 265 266 266 268 270 271 274 277 280 282 285 287 288 289 289 289 288 286 283 278
271 271 271 270 270 268 267 265 265 265 265 266 267 269 269 269 269 269 269 270 268 266 266 266 266 266 267 268 270 272 275 277 280 283 285 286 287 287 286 285 284 282 279
269 270 269 269 268 267 265 265 265 263 264 265 266 268 269 268 267 267 267 267 267 266 266 266 267 268 267 269 271 273 275 277 279 282 284 286 286 285 284 282 281 280 277
269 269 269 268 267 267 266 266 265 265 266 268 269 270 270 269 267 267 266 266 266 267 266 267 267 265 267 270 273 274 276 278 280 282 284 285 285 284 282 280 279 277 275
267 268 268 269 268 267 266 268 268 268 268 269 270 272 272 271 271 269 266 265 267 267 266 267 266 265 267 269 272 275 278 279 281 284 285 285 284 283 281 279 277 275 274
266 267 267 268 270 271 272 272 272 273 274 275 274 274 276 275 274 272 272 271 267 265 263 262 262 262 264 267 271 276 280 283 284 285 285 285 283 282 280 278 276 274 272
267 268 269 270 271 272 273 274 274 274 274 275 277 278 281 279 277 276 275 272 267 262 260 261 260 262 263 268 272 276 281 285 287 288 287 285 283 282 279 277 274 271 268
271 271 271 271 272 272 273 274 274 274 274 275 277 280 280 281 280 278 274 272 264 261 259 260 262 263 267 271 274 278 281 284 286 287 287 285 283 281 279 276 274 270 267
Height
5936 5936 5936 5936 5936 5935 5934 5933 5932 5931 5930 5929 5928 5927 5926 5924 5923 5922 5921 5920 5919 5917 5916 5915 5914 5913 5912 5911 5909 5908 5907 5906 5905 5904 5903 5902 5901 5900 5899 5899 5898 5898 5898
5938 5937 5937 5937 5937 5936 5936 5935 5933 5932 5931 5930 5929 5928 5927 5926 5924 5923 5922 5921 5920 5919 5917 5916 5915 5914 5913 5912 5911 5909 5908 5907 5906 5905 5904 5903 5902 5901 5900 5899 5899 5898 5898
5940 5939 5938 5938 5938 5937 5937 5936 5935 5933 5932 5931 5930 5929 5928 5927 5926 5924 5923 5922 5921 5919 5918 5917 5916 5915 5913 5912 5911 5910 5909 5908 5907 5905 5904 5903 5902 5901 5901 5900 5899 5898 5898
5941 5940 5940 5939 5939 5938 5937 5936 5935 5934 5933 5932 5931 5930 5929 5928 5927 5926 5924 5923 5921 5920 5919 5917 5916 5915 5914 5913 5911 5910 5909 5908 5907 5906 5904 5903 5902 5902 5901 5900 5899 5899 5898
5941 5940 5940 5940 5939 5939 5938 5937 5935 5934 5933 5932 5931 5930 5929 5928 5927 5926 5925 5923 5922 5921 5919 5918 5916 5915 5913 5912 5911 5910 5909 5908 5907 5906 5905 5903 5903 5902 5901 5900 5899 5899 5898
5940 5940 5940 5939 5939 5939 5938 5937 5936 5935 5933 5932 5931 5930 5929 5928 5927 5926 5925 5924 5922 5921 5919 5917 5916 5914 5913 5912 5911 5910 5909 5908 5907 5906 5905 5904 5903 5902 5901 5900 5898 5898 5898
5940 5939 5939 5939 5939 5939 5938 5937 5936 5935 5934 5932 5931 5930 5929 5928 5927 5926 5925 5924 5922 5921 5919 5917 5916 5914 5912 5911 5910 5909 5908 5907 5906 5905 5904 5903 5902 5901 5900 5899 5898 5897 5897
5939 5939 5938 5938 5938 5938 5937 5936 5935 5934 5933 5932 5931 5930 5929 5928 5927 5926 5925 5924 5922 5921 5919 5917 5916 5914 5912 5910 5909 5908 5907 5906 5905 5904 5903 5902 5901 5900 5899 5898 5897 5896 5895
5938 5937 5937 5936 5936 5936 5936 5935 5934 5934 5933 5932 5931 5930 5929 5928 5927 5926 5924 5923 5922 5920 5919 5917 5915 5913 5912 5910 5908 5907 5906 5905 5904 5903 5902 5901 5900 5899 5898 5897 5896 5895 5894
5935 5935 5935 5935 5935 5934 5934 5933 5933 5932 5931 5930 5929 5928 5928 5927 5925 5924 5923 5922 5921 5920 5918 5916 5914 5913 5911 5909 5907 5906 5904 5903 5902 5901 5900 5899 5898 5897 5896 5895 5894 5894 5893
5933 5933 5932 5933 5932 5932 5932 5931 5931 5930 5929 5929 5928 5927 5926 5925 5924 5922 5921 5920 5919 5918 5916 5915 5913 5911 5910 5908 5906 5904 5903 5902 5900 5899 5898 5897 5896 5895 5894 5893 5892 5892 5891
5930 5930 5930 5930 5930 5930 5929 5929 5928 5928 5927 5926 5926 5925 5923 5922 5921 5920 5919 5918 5917 5915 5914 5913 5911 5910 5908 5907 5905 5903 5901 5900 5898 5897 5896 5895 5894 5893 5892 5891 5890 5889 5888
5928 5928 5928 5927 5927 5927 5927 5926 5926 5925 5924 5924 5923 5922 5921 5919 5918 5917 5916 5915 5913 5912 5911 5910 5909 5908 5906 5905 5903 5901 5899 5898 5896 5895 5893 5892 5891 5890 5889 5888 5887 5887 5886
5925 5925 5925 5924 5924 5923 5923 5923 5922 5922 5921 5920 5919 5918 5917 5916 5915 5914 5912 5911 5910 5909 5908 5907 5906 5905 5903 5902 5900 5899 5897 5895 5894 5892 5891 5889 5888 5887 5886 5885 5884 5883 5883
5923 5922 5921 5921 5920 5919 5919 5918 5918 5917 5916 5916 5915 5914 5913 5912 5911 5910 5909 5907 5906 5904 5903 5902 5902 5901 5900 5898 5897 5895 5894 5892 5890 5889 5887 5886 5884 5883 5882 5881 5880 5880 5879
5919 5918 5917 5916 5915 5915 5914 5913 5912 5912 5911 5910 5910 5909 5908 5907 5906 5905 5904 5903 5901 5900 5898 5898 5897 5896 5895 5894 5892 5891 5889 5888 5886 5885 5884 5882 5881 5879 5878 5877 5876 5875 5875
5913 5912 5911 5910 5910 5909 5908 5907 5906 5906 5905 5904 5903 5903 5902 5901 5900 5899 5898 5897 5896 5894 5893 5892 5891 5890 5889 5888 5887 5886 5884 5883 5882 5880 5879 5877 5876 5875 5873 5872 5871 5870 5870
5906 5906 5905 5905 5904 5903 5902 5901 5900 5899 5898 5897 5896 5895 5894 5893 5892 5892 5891 5890 5889 5888 5887 5886 5885 5884 5883 5882 5881 5880 5879 5877 5876 5874 5873 5872 5871 5869 5868 5867 5866 5865 5864
5898 5898 5898 5897 5897 5896 5895 5893 5892 5891 5890 5889 5888 5887 5886 5885 5884 5883 5882 5881 5881 5881 5880 5879 5878 5877 5876 5875 5874 5874 5872 5871 5870 5868 5867 5865 5864 5863 5862 5861 5860 5859 5858
5890 5890 5890 5889 5889 5888 5886 5885 5884 5883 5882 5881 5879 5878 5876 5875 5874 5873 5872 5871 5871 5871 5871 5871 5870 5869 5869 5868 5867 5866 5866 5864 5863 5861 5860 5858 5857 5856 5855 5854 5853 5852 5851
5881 5881 5881 5880 5880 5879 5877 5877 5875 5874 5873 5872 5870 5868 5866 5865 5863 5863 5862 5861 5861 5861 5862 5862 5862 5861 5860 5860 5859 5859 5858 5857 5855 5854 5852 5850 5849 5848 5847 5846 5845 5844 5843
5872 5872 5871 5871 5871 5869 5869 5868 5866 5864 5864 5863 5861 5859 5857 5854 5853 5852 5851 5851 5851 5851 5852 5852 5853 5853 5852 5851 5851 5850 5850 5850 5847 5846 5844 5842 5840 5839 5838 5837 5836 5836 5835
5863 5863 5862 5862 5861 5860 5859 5858 5856 5854 5854 5853 5851 5849 5846 5843 5842 5841 5840 5841 5841 5842 5843 5843 5844 5844 5844 5844 5842 5841 5841 5841 5839 5838 5835 5833 5831 5829 5828 5827 5827 5826 5826
5855 5854 5853 5852 5851 5850 5848 5847 5845 5844 5843 5843 5840 5838 5836 5834 5832 5831 5831 5830 5830 5831 5832 5833 5834 5835 5836 5835 5834 5832 5831 5829 5828 5828 5827 5823 5821 5819 5817 5817 5817 5817 5816
5846 5844 5843 5842 5841 5839 5838 5836 5834 5833 5833 5831 5829 5827 5826 5824 5822 5821 5821 5821 5821 5821 5822 5824 5826 5826 5827 5826 5826 5824 5822 5820 5818 5816 5817 5815 5811 5809 5808 5807 5806 5806 5806
5835 5834 5832 5831 5829 5828 5826 5824 5822 5821 5820 5819 5818 5816 5815 5814 5811 5811 5811 5810 5811 5812 5813 5815 5817 5817 5817 5817 5816 5815 5814 5812 5810 5808 5807 5805 5803 5801 5799 5797 5797 5797 5797